Alva, OK

2:37 PM CST on December 07, 2016 (GMT -0600)
Alva Regional

Weather History for KAVK - December, 2013

Change the Weather History Date:

Monday, December 2, 2013

  Actual Average Record
Temperature  
Mean Temperature 46 °F -  
Max Temperature 62 °F 53 °F 76 °F (1970)
Min Temperature 30 °F 28 °F 12 °F (2006)
Degree Days  
Heating Degree Days 19    
Moisture  
Dew Point 31 °F    
Average Humidity 71    
Maximum Humidity 100    
Minimum Humidity 32    
Precipitation  
Precipitation 0.00 in - - ()
Sea Level Pressure  
Sea Level Pressure 29.75 in    
Wind  
Wind Speed 7 mph (WSW)    
Max Wind Speed 12 mph    
Max Gust Speed -    
Visibility 9 miles    
Events      
Averages and records for this station are not official NWS values.
T = Trace of Precipitation, MM = Missing Value Source: NWS Daily Summary

Daily Weather History Graph

Daily Weather History Graph

Search for Another Location

Airport or City:

Trip Planner

Search our weather history database for the weather conditions in past years. The results will help you decide how hot, cold, wet, or windy it might be!

Date:

Astronomy

Dec. 02, 2013 Rise Set
Actual Time 7:29 AM CST 5:18 PM CST
Civil Twilight 7:01 AM CST 5:46 PM CST
Nautical Twilight 6:29 AM CST 6:19 PM CST
Astronomical Twilight 5:57 AM CST 6:50 PM CST
Moon 6:57 AM CST (12/2) 5:22 PM CST (12/2)
Length of Visible Light 10h 45m
Length of Day
9h 48m
Waning Crescent, 0% of the Moon is Illuminated
Dec 2
Waning Crescent
Dec 2
New
Dec 9
First Quarter
Dec 17
Full
Dec 25
Last Quarter

Hourly Weather History & Observations

Time (CST) Temp. Windchill Dew Point Humidity Pressure Visibility Wind Dir Wind Speed Gust Speed Precip Events Conditions
12:10 AM 33.8 °F 25.8 °F 30.2 °F 87% 29.88 in 10.0 mi WSW 10.4 mph - N/A   Clear
12:30 AM 33.8 °F 25.8 °F 30.2 °F 87% 29.87 in 10.0 mi WSW 10.4 mph - N/A   Clear
12:50 AM 33.8 °F 27.0 °F 30.2 °F 87% 29.86 in 9.0 mi WSW 8.1 mph - N/A   Clear
1:10 AM 33.8 °F 27.7 °F 32.0 °F 93% 29.85 in 10.0 mi WSW 6.9 mph - N/A   Clear
1:30 AM 35.6 °F 29.9 °F 32.0 °F 87% 29.84 in 9.0 mi WSW 6.9 mph - N/A   Clear
1:50 AM 33.8 °F 28.6 °F 32.0 °F 93% 29.84 in 10.0 mi WSW 5.8 mph - N/A   Clear
2:10 AM 33.8 °F 28.6 °F 32.0 °F 93% 29.83 in 10.0 mi SW 5.8 mph - N/A   Clear
2:30 AM 35.6 °F 29.9 °F 32.0 °F 87% 29.83 in 10.0 mi SW 6.9 mph - N/A   Clear
2:50 AM 32.0 °F 24.8 °F 30.2 °F 93% 29.83 in 10.0 mi WSW 8.1 mph - N/A   Clear
3:10 AM 32.0 °F 25.6 °F 30.2 °F 93% 29.83 in 8.0 mi West 6.9 mph - N/A   Clear
3:30 AM 32.0 °F 25.6 °F 32.0 °F 100% 29.82 in 8.0 mi WSW 6.9 mph - N/A   Clear
3:50 AM 33.8 °F 26.4 °F 32.0 °F 93% 29.81 in 9.0 mi WSW 9.2 mph - N/A   Clear
4:10 AM 33.8 °F 25.8 °F 32.0 °F 93% 29.80 in 9.0 mi WSW 10.4 mph - N/A   Clear
4:30 AM 32.0 °F 24.8 °F 32.0 °F 100% 29.79 in 8.0 mi SW 8.1 mph - N/A   Clear
4:50 AM 32.0 °F 24.8 °F 30.2 °F 93% 29.78 in 8.0 mi SW 8.1 mph - N/A   Clear
5:10 AM 32.0 °F 24.2 °F 30.2 °F 93% 29.78 in 7.0 mi SW 9.2 mph - N/A   Clear
5:30 AM 32.0 °F 25.6 °F 30.2 °F 93% 29.77 in 8.0 mi SW 6.9 mph - N/A   Clear
5:50 AM 32.0 °F 24.8 °F 28.4 °F 87% 29.76 in 8.0 mi SW 8.1 mph - N/A   Clear
6:10 AM 30.2 °F 26.7 °F 28.4 °F 93% 29.77 in 7.0 mi WSW 3.5 mph - N/A   Clear
6:30 AM 30.2 °F 24.3 °F 28.4 °F 93% 29.75 in 8.0 mi South 5.8 mph - N/A   Clear
6:50 AM 30.2 °F - 28.4 °F 93% 29.77 in 9.0 mi Calm Calm - N/A   Clear
7:10 AM 32.0 °F 26.4 °F 28.4 °F 87% 29.77 in 10.0 mi SW 5.8 mph - N/A   Clear
7:30 AM 30.2 °F 20.8 °F 26.6 °F 86% 29.75 in 9.0 mi SSW 11.5 mph - N/A   Clear
7:50 AM 32.0 °F 24.8 °F 28.4 °F 87% 29.75 in 8.0 mi WSW 8.1 mph - N/A   Clear
8:10 AM 32.0 °F 25.6 °F 28.4 °F 87% 29.76 in 8.0 mi WSW 6.9 mph - N/A   Clear
8:30 AM 32.0 °F 26.4 °F 28.4 °F 87% 29.76 in 9.0 mi West 5.8 mph - N/A   Clear
8:50 AM 32.0 °F 27.5 °F 28.4 °F 87% 29.77 in 8.0 mi West 4.6 mph - N/A   Clear
9:10 AM 37.4 °F 33.8 °F 30.2 °F 75% 29.77 in 10.0 mi West 4.6 mph - N/A   Clear
9:30 AM 39.2 °F 35.0 °F 32.0 °F 75% 29.77 in 9.0 mi West 5.8 mph - N/A   Clear
9:50 AM 41.0 °F 39.0 °F 32.0 °F 70% 29.76 in 9.0 mi WNW 3.5 mph - N/A   Clear
10:10 AM 41.0 °F 39.0 °F 32.0 °F 70% 29.76 in 10.0 mi WNW 3.5 mph - N/A   Clear
10:30 AM 44.6 °F 43.1 °F 32.0 °F 61% 29.76 in 10.0 mi West 3.5 mph - N/A   Clear
10:50 AM 46.4 °F 45.2 °F 32.0 °F 57% 29.76 in 10.0 mi WSW 3.5 mph - N/A   Clear
11:10 AM 48.2 °F - 32.0 °F 54% 29.75 in 10.0 mi NW 5.8 mph - N/A   Clear
11:30 AM 48.2 °F - 32.0 °F 54% 29.75 in 10.0 mi WNW 4.6 mph - N/A   Clear
11:50 AM 50.0 °F - 32.0 °F 50% 29.73 in 10.0 mi Calm Calm - N/A   Clear
12:10 PM 53.6 °F - 32.0 °F 44% 29.72 in 10.0 mi NNW 3.5 mph - N/A   Clear
12:30 PM 53.6 °F - 32.0 °F 44% 29.71 in 10.0 mi WNW 4.6 mph - N/A   Clear
12:50 PM 55.4 °F - 33.8 °F 44% 29.71 in 10.0 mi WNW 3.5 mph - N/A   Clear
1:10 PM 55.4 °F - 33.8 °F 44% 29.69 in 9.0 mi Calm Calm - N/A   Clear
1:30 PM 57.2 °F - 33.8 °F 41% 29.69 in 9.0 mi Calm Calm - N/A   Clear
1:50 PM 59.0 °F - 32.0 °F 36% 29.67 in 10.0 mi Calm Calm - N/A   Clear
2:10 PM 59.0 °F - 32.0 °F 36% 29.67 in 10.0 mi SW 3.5 mph - N/A   Clear
2:30 PM 60.8 °F - 32.0 °F 34% 29.66 in 10.0 mi NW 3.5 mph - N/A   Clear
2:50 PM 62.6 °F - 32.0 °F 32% 29.65 in 10.0 mi Calm Calm - N/A   Clear
3:10 PM 62.6 °F - 32.0 °F 32% 29.65 in 10.0 mi Calm Calm - N/A   Clear
3:30 PM 60.8 °F - 35.6 °F 39% 29.65 in 10.0 mi SE 4.6 mph - N/A   Clear
3:50 PM 59.0 °F - 35.6 °F 42% 29.64 in 10.0 mi SE 5.8 mph - N/A   Clear
4:10 PM 55.4 °F - 37.4 °F 51% 29.64 in 9.0 mi SE 5.8 mph - N/A   Clear
4:30 PM 53.6 °F - 37.4 °F 54% 29.66 in 9.0 mi SSE 5.8 mph - N/A   Clear
4:50 PM 51.8 °F - 35.6 °F 54% 29.66 in 9.0 mi SE 6.9 mph - N/A   Clear